Regional Weather Roundup
Issued by NWS

Home | Current Version | Previous Version | Graphics & Text | Print | Product List | Glossary On
Versions: 1 2 3 4 5 6 7 8 9 10 11 12 13 14 15 16 17 18 19 20 21 22 23 24 25 26 27 28 29 30 31 32 33 34 35 36 37 38 39 40 41 42 43 44 45 46 47 48 49 50
000
ASUS43 KBIS 210910
RWRND

NORTH DAKOTA REGIONAL WEATHER ROUNDUP
NATIONAL WEATHER SERVICE BISMARCK ND
400 AM CDT SAT OCT 21 2017

NOTE: "FAIR" INDICATES FEW OR NO CLOUDS BELOW 12,000 FEET WITH NO
SIGNIFICANT WEATHER AND/OR OBSTRUCTIONS TO VISIBILITY.


NDZ001>003-009>011-017-211000-
NORTHWEST NORTH DAKOTA

CITY           SKY/WX    TMP DP  RH WIND       PRES   REMARKS
WILLISTON        N/A    N/A N/A N/A MISG      29.39R
MINOT          CLEAR     57  33  40 W17       29.27R
MINOT AFB      CLEAR     56  34  44 NW20G26   29.24R
$$

NDZ018>021-031>035-040>046-211000-
SOUTHWEST NORTH DAKOTA

CITY           SKY/WX    TMP DP  RH WIND       PRES   REMARKS
BISMARCK       CLEAR     56  34  43 W8        29.37R
DICKINSON      PTCLDY    48  39  71 W24G37    29.43R
GARRISON         N/A     54  34  46 W14G24    29.32R
HETTINGER ARPT CLOUDY    47  36  65 W20G30    29.54R
$$

NDZ004>008-012>016-024-026-027-054-211000-
NORTHEAST NORTH DAKOTA

CITY           SKY/WX    TMP DP  RH WIND       PRES   REMARKS
GRAND FORKS    CLEAR     67  59  75 S18G31    29.32F
GRND FRKS AFB  CLEAR     64  57  77 S21G29    29.32S
DEVILS LAKE    CLEAR     61  54  77 S17       29.27F
$$

NDZ022-023-025-028>030-036>039-047>053-211000-
SOUTHEAST NORTH DAKOTA

CITY           SKY/WX    TMP DP  RH WIND       PRES   REMARKS
FARGO          MOCLDY    65  58  78 S21G35    29.38F
JAMESTOWN      CLEAR     59  55  87 S13       29.32S
$$





USA.gov is the U.S. government's official web portal to all federal, state and local government web resources and services.